Location: Bruderhein
(53.8035°N, 112.9265°W)
Time: 08:22:20
(UTC+00:00)

COSMOS 2251 DEB - Visible Passes

Search period start: 02 December 2023 00:00
Search period end: 12 December 2023 00:00
Orbit: 741 x 915 km, 73.8° (Epoch: 01 December)

Date Brightness Start Highest point End Pass type
(mag) Time Alt. Az. Time Alt. Az. Time Alt. Az.
02 Dec ? 10:57:41 13° NNE 10:57:56 13° NNE 11:00:14 10° NE visible
02 Dec ? 12:39:14 15° N 12:43:10 34° NE 12:47:55 10° ESE visible
02 Dec ? 14:21:37 10° NNW 14:26:50 52° WSW 14:31:49 10° S visible
03 Dec ? 10:39:22 12° NNE 10:39:22 12° NNE 10:40:44 10° NE visible
03 Dec ? 12:20:54 18° N 12:24:05 31° NE 12:28:42 10° ESE visible
03 Dec ? 14:02:36 10° NNW 14:07:52 60° WSW 14:12:55 10° S visible
04 Dec ? 10:21:04 10° NE 10:21:04 10° NE 10:21:10 10° NE visible
04 Dec ? 12:02:37 21° N 12:05:00 28° NE 12:09:29 10° ESE visible
04 Dec ? 13:44:11 13° NNW 13:48:54 68° WSW 13:54:00 10° SSE visible
05 Dec ? 11:44:24 23° NNE 11:45:53 26° NE 11:50:13 10° E visible
05 Dec ? 13:25:57 18° NNW 13:29:55 77° WSW 13:35:03 10° SSE visible
06 Dec ? 11:26:12 23° NNE 11:26:46 24° NE 11:30:56 10° E visible
06 Dec ? 13:07:46 25° NNW 13:10:55 87° WSW 13:16:03 10° SSE visible
06 Dec ? 14:50:21 10° WNW 14:53:27 16° W 14:56:31 10° SW visible
07 Dec ? 11:08:04 21° NE 11:08:04 21° NE 11:11:38 10° E visible
07 Dec ? 12:49:38 35° NNW 12:51:54 84° ENE 12:57:02 10° SSE visible
07 Dec ? 14:31:12 10° NW 14:34:33 18° W 14:37:59 10° SW visible
08 Dec ? 10:50:01 18° ENE 10:50:01 18° ENE 10:52:17 10° E visible
08 Dec ? 12:31:34 51° N 12:32:52 75° ENE 12:37:59 10° SSE visible
08 Dec ? 14:13:09 15° WNW 14:15:39 21° W 14:19:23 10° SW visible
09 Dec ? 10:32:01 13° ENE 10:32:01 13° ENE 10:32:55 10° E visible
09 Dec ? 12:13:35 65° NE 12:13:49 66° ENE 12:18:55 10° SE visible
09 Dec ? 13:55:10 20° WNW 13:56:43 24° W 14:00:44 10° SSW visible
10 Dec ? 11:55:40 51° E 11:55:40 51° E 11:59:48 10° SE visible
10 Dec ? 13:37:14 26° W 13:37:47 27° W 13:42:01 10° SSW visible
11 Dec ? 02:44:19 10° S 02:45:20 15° S 02:45:20 15° S visible
11 Dec ? 11:37:49 32° ESE 11:37:49 32° ESE 11:40:41 10° SE visible
11 Dec ? 13:19:23 30° WSW 13:19:23 30° WSW 13:23:14 10° SSW visible
